Location: Corte Bragagnani
(45.3000°N, 11.1000°E)
Time: 05:06:52
(UTC+00:00)

RESURS DK-1 - Pass Details

Date: 09 April 2020
Orbit: 557 x 561 km, 69.9° (Epoch: 01 June)

Event Time Altitude Azimuth Distance (km) Brightness Sun altitude
Rises 19:07:29 0° 346° (NNW) 2,760 6.5 -13.0°
Reaches altitude 10° 19:10:40 10° 12° (NNE) 1,859 5.2 -13.5°
Maximum altitude 19:12:55 14° 45° (NE) 1,606 4.5 -13.8°
Enters shadow 19:14:25 12° 68° (ENE) 1,721 4.5 -14.1°
